Miscellaneous Local Product
Issued by NWS Hastings, NE

Home | Current Version | Previous Version | Graphics & Text | Print | Product List | Glossary On
Versions: 1 2 3 4 5 6 7 8 9 10 11 12 13 14 15 16 17 18 19 20 21 22 23 24 25 26 27 28 29 30 31 32 33 34 35 36 37 38 39 40 41 42 43 44 45 46 47 48 49 50
000
AXUS43 KGID 201602
MISGRI

GID CWA HOURLY WEATHER ROUNDUP
NATIONAL WEATHER SERVICE HASTINGS NE
1100 AM CDT WED AUG 20 2014

NOTE: "FAIR" INDICATES FEW OR NO CLOUDS BELOW 12,000 FEET WITH NO
SIGNIFICANT WEATHER AND/OR OBSTRUCTIONS TO VISIBILITY.

...SOUTH CENTRAL NEBRASKA...

CITY           SKY/WX    TMP DP  RH WIND       PRES   REMARKS
GRAND ISLAND   CLOUDY    77  66  68 E6        29.81R
HASTINGS       CLOUDY    76  64  66 S8        29.80R
KEARNEY        PTSUNNY   79  70  73 S9        29.79R
ORD            CLOUDY    75  67  76 SE12      29.77S
YORK           CLOUDY    75 N/A N/A SE7       29.82R
AURORA         CLOUDY    76  70  80 SE5       29.82R
LEXINGTON      PTSUNNY   78  70  75 CALM      29.78R
HOLDREGE       PTSUNNY   83  66  55 S12       29.79R
HEBRON         MOSUNNY   81  66  61 S10       29.81F

...NEBRASKA PANHANDLE...

CITY           SKY/WX    TMP DP  RH WIND       PRES   REMARKS
CHADRON        PTSUNNY   82  55  39 W10       29.77R
ALLIANCE       CLOUDY    79  54  41 W8        29.84R
SCOTTSBLUFF    MOSUNNY   80  56  43 W12       29.85S
SIDNEY         MOSUNNY   77  55  46 NW3       29.89R

...WESTERN AND NORTH CENTRAL NEBRASKA...

CITY           SKY/WX    TMP DP  RH WIND       PRES   REMARKS
VALENTINE      CLOUDY    77  65  66 S7        29.77R
AINSWORTH      CLOUDY    77  67  70 S7        29.78R
ONEILL         SUNNY     79  71  75 SE10      29.77F
BROKEN BOW     PTSUNNY   76  68  76 SE7       29.78R
IMPERIAL       CLOUDY    71  63  75 W6        29.82R
NORTH PLATTE   CLOUDY    75  66  73 NW7       29.78S
MCCOOK         MOSUNNY   86  64  47 S8        29.78R

...EASTERN NEBRASKA...

CITY           SKY/WX    TMP DP  RH WIND       PRES   REMARKS
NORFOLK        CLOUDY    72  68  87 SE12      29.82S
SO SIOUX CITY  LGT RAIN  72  67  84 SE7       29.82R
TEKAMAH        CLOUDY    75  68  78 SE16      29.83S
COLUMBUS       CLOUDY    72  70  94 SE9       29.83S
ALBION         CLOUDY    76  68  76 SE14G20   29.79F
OMAHA EPPLEY   CLOUDY    75  67  76 SE15      29.85S
OFFUTT AFB     CLOUDY    77  74  91 E10       29.85S
MILLARD        CLOUDY    76  70  81 SE6       29.85S
LINCOLN        CLOUDY    85  67  54 SE6       29.83F
NEBRASKA CITY  PTSUNNY   82  70  67 E5        29.87S
BEATRICE       PTSUNNY   83  70  64 S8        29.84R
FALLS CITY     MOSUNNY   88  72  58 VRB5      29.85R HX  94

...NORTHERN KANSAS...

CITY           SKY/WX    TMP DP  RH WIND       PRES   REMARKS
GOODLAND       SUNNY     85  59  41 W7        29.83S
HILL CITY      SUNNY     86  66  51 S14       29.79S
NORTON         SUNNY     88  63  42 S12       29.78S
PHILLIPSBURG   SUNNY     84  64  51 SE10G16   29.79S
SMITH CENTER   SUNNY     84  64  51 S15       29.80S
BELOIT           N/A     86  68  54 S12       29.79S
HAYS           SUNNY     88  66  48 S16       29.81S HX  90
RUSSELL        SUNNY     86  67  52 S12       29.81S
CONCORDIA      SUNNY     83  71  67 S14       29.82S
SALINA         SUNNY     86  69  56 S16       29.83S HX  90
TOPEKA         SUNNY     87  71  58 S10       29.87S HX  93



USA.gov is the U.S. government's official web portal to all federal, state and local government web resources and services.